STARLINK-32156, 60278

Orbit data source: Space-Track

STARLINK-32156, 60278 is a payload satellite owned by SpaceX/Seattle (US) in LEO that was launched on Sun, 28 Jul 2024 UTC via an FALCON 9 launch vehicle from the Air Force Eastern Test Range (AFETR). Payload-class satellites include a variety of spacecraft equipped with specific instruments for various scientific and technological missions. These include communications satellites like Starlink; space stations such as the ISS; scientific satellites like the Hubble; Earth observation satellites from companies like Planet Labs, Umbra, and HawkEye 360; GPS; miniature CubeSats for education and research; and military/defense satellites.

Loading next visibility...
Identifier
60278, 2024-132A
Orbit
LEO
Last TLE update
20 hours ago
Origin
Manufacturer
SpaceX/Seattle
Mission
Operational spacecraft
Bus & Motor
STARLINK V2M, Unknown motor
Mass
730 kg wet, ~700 kg dry
Launch date (UTC)
2024-07-28 (9 months ago)
Launch vehicle
FALCON 9
Launch site
Air Force Eastern Test Range (AFETR)
Object type
Payload
Rocket body
Debris
Shape & HBR
Unknown
Radar Cross Section
Large (>1 m²)

Expand to show TLE details & history

TLE from 20 hours ago
0 STARLINK-32156
1 60278U 24132A   25128.94405925  .00000849  00000-0  40786-4 0  9991
2 60278  53.1617  27.8614 0000861  82.2706 277.8392 15.30195051 46127
Epoch: 2025-05-08T22:39Z
Definitive object data (Epoch: 2025-05-08T22:39:26.719Z)
Latitude
-0.00005°
Longitude
-179.00726°
Altitude
476.049 km
Speed
7.629 km/s
True Right ascension
01h 51m 26s
True Declination
0° 00' 00"
Sunlit
Object was in daylight at TLE epoch
Visualization TLE readout
Latitude
-3.9786°
Longitude
174.08188°
Altitude
476.723 km
Speed
7.628 km/s
Apparent Right ascension
22h 36m 00s
Apparent Declination
-53° 48' 03"
Sunlit
Object is in daylight
Visualization observer readout
Local Sidereal Time
03:11:44
Azimuth
216.123° SW
Elevation
-20.793°
Doppler factor
1
Orbital elements
Apogee altitude
476.076 km
Perigee altitude
474.896 km
Semi-major axis
6,853.623 km
Eccentricity
0.0000861
Inclination
53.1617°
RAAN
27.8614°
Arg. of periapsis
82.2706°
True anomaly
277.82943°
Mean anomaly
277.8392°
Eccentric anomaly
277.83431°
Mean motion
3.82528 °/min
BSTAR
0.000040786
Orbital period
94.11 mins
Loading maneuver chart data...
Loading SW <> Apogee altitude chart data...
Loading historical data...
Loading historical data...
Loading historical data...
Loading historical data...
Loading historical data...
Loading historical data...
Loading historical data...

STARLINK-32156 Visibility forecast

Observer location: undefined°, undefined°

Span
Click to sort rows by Start time (UTC) header in descending order
Start Az.
Max El. time (UTC)
Max El. Az.
Max El.
End time (UTC)
End Az.
5 mins2025-05-09 19:11:50.552Z190.716° SSW2025-05-09 19:14:50.552Z116.531° SE27.435°2025-05-09 19:16:50.552Z75.077° E
4 mins2025-05-09 20:50:50.552Z286.587° WNW2025-05-09 20:51:50.552Z313.434° NW27.235°2025-05-09 20:54:50.552Z27.753° NE
4 mins2025-05-10 01:47:50.552Z349.871° N2025-05-10 01:48:50.552Z17.646° NNE27.463°2025-05-10 01:51:50.552Z90.387° ESE
5 mins2025-05-10 03:24:50.552Z282.854° WNW2025-05-10 03:26:50.552Z237.167° WSW27.894°2025-05-10 03:29:50.552Z167.615° S
5 mins2025-05-10 18:42:50.552Z179.908° S2025-05-10 18:44:50.552Z134.357° SE24.853°2025-05-10 18:47:50.552Z73.699° E
|